Regional Weather Roundup
Issued by NWS

Home | Current Version | Previous Version | Graphics & Text | Print | Product List | Glossary On
Versions: 1 2 3 4 5 6 7 8 9 10 11 12 13 14 15 16 17 18 19 20 21 22 23 24 25 26 27 28 29 30 31 32 33 34 35 36 37 38 39 40 41 42 43 44 45 46 47 48 49 50
000
ASUS43 KLOT 080708
RWRIL

ILLINOIS REGIONAL WEATHER ROUNDUP
NATIONAL WEATHER SERVICE CHICAGO/ROMEOVILLE IL
100 AM CST MON FEB 08 2016

NOTE: "FAIR" INDICATES FEW OR NO CLOUDS BELOW 12,000 FEET WITH NO
SIGNIFICANT WEATHER AND/OR OBSTRUCTIONS TO VISIBILITY.

* THESE STATIONS ARE NOT UNDER NWS QUALITY CONTROL. THEY ALSO MAY NOT
  REPORT WEATHER SUCH AS PRECIPITATION OR FOG.

ILZ001-002-007-009-015-016-024-080800-
NORTHWEST ILLINOIS

CITY           SKY/WX    TMP DP  RH WIND       PRES   REMARKS
MOLINE         FLURRIES  34  31  88 W13       29.70F WCI  25
STERLING*      CLOUDY    34  28  80 W10       29.66F WCI  26
SAVANNA*       CLOUDY    34  30  86 W16       29.67F WCI  23
$$

ILZ003-004-008-010-011-017-018-080800-
NORTH CENTRAL ILLINOIS

CITY           SKY/WX    TMP DP  RH WIND       PRES   REMARKS
ROCKFORD       MOCLDY    33  28  81 SW10      29.66F WCI  25
FREEPORT*      CLOUDY    32  29  90 SW6       29.66F WCI  26
ROCHELLE*      CLOUDY    31  29  93 W9        29.67F WCI  23
DE KALB*       CLEAR     32  28  86 SW14      29.66F WCI  22
$$

ILZ005-006-012>014-019>023-080800-
NORTHEAST ILLINOIS

CITY           SKY/WX    TMP DP  RH WIND       PRES   REMARKS
CHICAGO-OHARE  CLEAR     31  26  82 W7        29.65F WCI  24
CHICAGO-MIDWAY PTCLDY    33  26  75 SW8       29.67F WCI  26
AURORA         CLEAR     31  27  85 SW8       29.67F WCI  23
LANSING*       CLEAR     31  26  83 SW5       29.68F WCI  26
WAUKEGAN       CLEAR     29  26  89 SW5       29.63F WCI  24
DUPAGE AIRPORT CLEAR     29  25  85 SW8       29.66F WCI  21
KANKAKEE*      PTCLDY    32  27  81 SW8       29.70F WCI  25
WHEELING       CLEAR     32  27  81 SW6       29.66F WCI  26
MORRIS*        CLEAR     31  27  86 W7        29.67F WCI  24
ROMEOVILLE*    PTCLDY    32  27  81 W9        29.68F WCI  24
$$

LMZ740>746-080800-
SOUTHERN LAKE MICHIGAN

STATION/POSITION SKY/WX   TEMP    WIND        PRES    VSBY  WAVE
                          AIR SEA DIR/SP/G                  HT/PER
                          (F)     (DEG/KT/KT) (MB)    (MI)  (FT/S)
HARRISON CRIB              37     260/ 14/ 16   N/A
BURNHAM HARBOR             35     210/  4/  8   N/A
CALUMET HARBOR             35     230/  6/  9 1005.0F
BURNS HARBOR               36     230/ 10/ 11 1006.8F
MICHIGAN CITY              35     220/ 13/ 14   N/A
$$

ILZ025>027-034>036-040-047-049-050-058-095>099-080800-
WEST-CENTRAL ILLINOIS

CITY           SKY/WX    TMP DP  RH WIND       PRES   REMARKS
QUINCY         CLOUDY    35  30  82 W14       29.79F WCI  26
GALESBURG*     FLURRIES  33  31  93 W12       29.72F WCI  24
MACOMB*        CLOUDY    34  31  89 W14       29.77F WCI  24
JACKSONVILLE*  CLOUDY    37  33  85 W9        29.78F WCI  30
PITTSFIELD*    CLOUDY    36  31  83 W12       29.80F WCI  28
$$

ILZ028>032-037-038-041>044-048-051>054-059>061-080800-
CENTRAL ILLINOIS

CITY           SKY/WX    TMP DP  RH WIND       PRES   REMARKS
PONTIAC        CLOUDY    34  31  88 W7        29.72F WCI  28
BLOOMINGTON    PTCLDY    33  30  89 W13       29.73F WCI  24
DECATUR        PTCLDY    35  29  78 W9        29.75F WCI  28
PEORIA         CLEAR     32  26  78 W6        29.74F WCI  26
LACON*         CLEAR     33  27  81 W5        29.71F WCI  28
LINCOLN*       MOCLDY    35  29  80 CALM      29.75F
SPRINGFIELD    CLOUDY    35  30  82 W10       29.77F WCI  27
TAYLORVILLE    MOCLDY    34  30  86 W10       29.77F WCI  26
$$

ILZ033-039-045-046-055>057-062-063-080800-
EAST-CENTRAL ILLINOIS

CITY           SKY/WX    TMP DP  RH WIND       PRES   REMARKS
CHAMPAIGN      PTCLDY    33  30  88 SW7       29.73F WCI  27
RANTOUL*       CLOUDY    36  32  86 W7        29.72F WCI  30
MATTOON        CLEAR     34  31  88 SW5       29.75F WCI  30
$$

ILZ079-100>102-080800-
SOUTHWEST ILLINOIS

CITY           SKY/WX    TMP DP  RH WIND       PRES   REMARKS
ALTON          CLOUDY    37  29  75 W12       29.81F WCI  29
BELLEVILLE     CLOUDY    40  29  64 NW12      29.80F
CAHOKIA*       CLOUDY    40  29  64 NW15      29.83F
SPARTA*        CLOUDY    38  30  72 N5        29.84S WCI  35
$$

ILZ064>066-069>071-074>076-080>082-084>086-088>090-092>094-080800-
SOUTH-CENTRAL ILLINOIS

CITY           SKY/WX    TMP DP  RH WIND       PRES   REMARKS
CARBONDALE     PTCLDY    37  28  70 W7        29.83F WCI  32
CAIRO*         PTCLDY    41  32  70 W6        29.85F
EFFINGHAM*     PTCLDY    34  34 100 S5        29.79F WCI  30
MARION         CLEAR     41  30  65 CALM      29.83F
MT. VERNON     CLOUDY    39  28  65 W7        29.81S WCI  34
CENTRALIA*     MOCLDY    39  33  80 W7        29.80F WCI  34
SALEM*         CLOUDY    38  33  80 W6        29.80F WCI  34
METROPOLIS*    MOCLDY    44  33  65 SW5       29.84F
$$

ILZ067-068-072-073-078-083-087-091-080800-
SOUTHEAST ILLINOIS

CITY           SKY/WX    TMP DP  RH WIND       PRES   REMARKS
LAWRENCEVILLE  CLOUDY    38  34  85 W7        29.79F WCI  33
FLORA*         CLOUDY    37  35  94 W6        29.80F WCI  32
FAIRFIELD*     MOCLDY    36  34  90 CALM      29.79F
HARRISBURG*    PTCLDY    38  33  81 W7        29.83F WCI  33
ROBINSON*      CLOUDY    35  33  93 W6        29.80F WCI  30
CARMI*         PTCLDY    34  32  94 SW6       29.81F WCI  29
$$

ABBREVIATIONS USED IN REMARKS
   TC - TEMPERATURE IN CELSIUS
  WCI - WIND CHILL INDEX
   HX - HEAT INDEX
  VSB - VISIBILITY
$$




USA.gov is the U.S. government's official web portal to all federal, state and local government web resources and services.